Location: Andrest
(43.3200°N, 0.0641°E)
Time: 05:20:10
(UTC+00:00)

SL-8 Rocket - Pass Details

Date: 28 April 2021
Orbit: 958 x 989 km, 82.9° (Epoch: 11 May)

Event Time Altitude Azimuth Distance (km) Brightness Sun altitude
Rises 22:24:30 0° 8° (N) 3,704 7.8 -28.5°
Reaches altitude 10° 22:28:49 10° 36° (NE) 2,755 6.7 -28.8°
Maximum altitude 22:31:30 13° 62° (ENE) 2,551 6.2 -29.0°
Enters shadow 22:32:46 12° 74° (ENE) 2,596 6.1 -29.1°
